Date String (YYYY-MM-DD hh:mm:ss) UTC,Instrument flags,Ambient pressure (hPa),Sample flow (lpm),Bypass flow (lpm),Sample temperature (°C),Ambient temperature (°C),ASC tube jacket temperature (°C),LED temperature (°C),Box temperature (°C),Sample RH (%),Span deviation,Mass concentration (μg/m³),Mass concentration (μg/m³),Mass concentration (μg/m³)
DateTimeUTC,F1_M11,P_M11,Q1_M11,Q2_M11,T1_M11,T2_M11,T3_M11,T4_M11,T5_M11,U1_M11,ZSPAN_M11,X2_M11,X0_M11,X1_M11
2023-03-09 21:00:00,,0824.4,5.01,0.00,22.4,21.3,00.0,31.0,24.3,05.8,0000.0,0000.98,0002.36,0000.56
2023-03-09 21:01:00,,0824.5,5.01,0.00,22.5,21.3,00.0,31.0,24.3,06.0,0000.0,0000.98,0002.30,0000.57
2023-03-09 21:02:00,,0824.4,5.00,0.00,22.4,21.3,00.0,31.0,24.3,05.8,0000.0,0000.95,0002.09,0000.58
2023-03-09 21:03:00,,0824.4,5.00,0.00,22.4,21.3,00.0,31.0,24.3,05.9,0000.0,0000.91,0001.86,0000.60
2023-03-09 21:04:00,,0824.5,5.00,0.00,22.4,21.2,00.0,31.1,24.3,05.9,0000.0,0000.89,0001.77,0000.60
2023-03-09 21:05:00,,0824.6,4.99,0.00,22.4,21.2,00.0,31.1,24.3,05.7,0000.0,0000.89,0001.74,0000.60
2023-03-09 21:06:00,,0824.7,5.00,0.00,22.5,21.3,00.0,31.1,24.3,06.0,0000.0,0000.90,0001.77,0000.61
2023-03-09 21:07:00,,0824.7,5.00,0.00,22.5,21.3,00.0,31.1,24.3,05.7,0000.0,0000.92,0001.79,0000.62
2023-03-09 21:08:00,,0824.6,5.00,0.00,22.5,21.4,00.0,31.1,24.4,05.7,0000.0,0000.93,0001.83,0000.62
2023-03-09 21:09:00,,0824.9,5.00,0.00,22.5,21.4,00.0,31.1,24.4,05.9,0000.0,0000.96,0001.88,0000.62
2023-03-09 21:10:00,,0824.5,5.00,0.00,22.5,21.4,00.0,31.1,24.4,05.9,0000.0,0000.95,0001.74,0000.62
2023-03-09 21:11:00,,0824.4,5.00,0.00,22.5,21.4,00.0,31.1,24.4,06.0,0000.0,0000.93,0001.70,0000.61
2023-03-09 21:12:00,,0824.4,4.99,0.00,22.5,21.4,00.0,31.2,24.4,05.8,0000.0,0000.96,0002.70,0000.61
2023-03-09 21:13:00,,0824.3,4.99,0.00,22.5,21.4,00.0,31.2,24.4,05.8,0000.0,0000.97,0002.89,0000.60
2023-03-09 21:14:00,,0824.3,5.00,0.00,22.6,21.4,00.0,31.2,24.4,05.6,0000.0,0000.96,0002.96,0000.59
2023-03-09 21:15:00,,0824.4,5.00,0.00,22.6,21.4,00.0,31.2,24.4,05.8,0000.0,0000.94,0002.93,0000.58
2023-03-09 21:16:00,,0824.4,5.01,0.00,22.6,21.4,00.0,31.2,24.4,05.8,0000.0,0000.90,0003.20,0000.58
2023-03-09 21:17:00,,0824.4,5.01,0.00,22.6,21.4,00.0,31.2,24.4,05.9,0000.0,0000.91,0004.13,0000.58
2023-03-09 21:18:00,,0824.8,5.00,0.00,22.6,21.4,00.0,31.2,24.4,06.1,0000.0,0000.91,0005.58,0000.58
2023-03-09 21:19:00,,0824.3,5.00,0.00,22.6,21.4,00.0,31.2,24.4,05.9,0000.0,0000.88,0005.96,0000.57
2023-03-09 21:20:00,,0824.4,5.00,0.00,22.6,21.4,00.0,31.2,24.4,05.8,0000.0,0000.87,0005.96,0000.57
2023-03-09 21:21:00,,0824.4,5.00,0.00,22.6,21.4,00.0,31.2,24.5,05.8,0000.0,0000.88,0005.96,0000.57
2023-03-09 21:22:00,,0824.4,5.00,0.00,22.6,21.5,00.0,31.2,24.5,05.7,0000.0,0000.89,0006.00,0000.58
2023-03-09 21:23:00,,0824.4,4.99,0.00,22.6,21.4,00.0,31.2,24.5,05.8,0000.0,0000.86,0004.99,0000.57
2023-03-09 21:24:00,,0824.4,5.01,0.00,22.6,21.4,00.0,31.3,24.5,05.9,0000.0,0000.85,0004.77,0000.57
2023-03-09 21:25:00,,0824.3,5.00,0.00,22.6,21.4,00.0,31.3,24.5,05.9,0000.0,0000.85,0004.70,0000.57
2023-03-09 21:26:00,,0824.4,5.01,0.00,22.6,21.4,00.0,31.3,24.5,05.9,0000.0,0000.84,0006.26,0000.57
2023-03-09 21:27:00,,0824.4,5.01,0.00,22.6,21.4,00.0,31.3,24.5,05.9,0000.0,0000.88,0007.02,0000.57
2023-03-09 21:28:00,,0824.4,5.00,0.00,22.6,21.4,00.0,31.3,24.5,06.0,0000.0,0000.97,0007.90,0000.57
2023-03-09 21:29:00,,0824.4,4.99,0.00,22.6,21.4,00.0,31.3,24.5,05.8,0000.0,0000.95,0007.27,0000.56
2023-03-09 21:30:00,,0824.5,5.00,0.00,22.6,21.4,00.0,31.3,24.5,05.8,0000.0,0001.03,0006.81,0000.56
2023-03-09 21:31:00,,0824.3,5.00,0.00,22.6,21.4,00.0,31.3,24.5,06.0,0000.0,0001.05,0006.88,0000.56
2023-03-09 21:32:00,,0824.3,4.99,0.00,22.6,21.4,00.0,31.3,24.5,06.0,0000.0,0001.06,0006.92,0000.56
2023-03-09 21:33:00,,0824.4,4.99,0.00,22.7,21.4,00.0,31.3,24.5,06.0,0000.0,0001.04,0007.17,0000.55
2023-03-09 21:34:00,,0824.5,5.00,0.00,22.6,21.4,00.0,31.3,24.5,06.0,0000.0,0001.02,0007.38,0000.55
2023-03-09 21:35:00,,0824.7,4.99,0.00,22.6,21.4,00.0,31.3,24.4,06.1,0000.0,0001.06,0007.46,0000.55
2023-03-09 21:36:00,,0824.6,5.01,0.00,22.7,21.4,00.0,31.3,24.5,05.9,0000.0,0001.07,0007.50,0000.55
2023-03-09 21:37:00,,0824.7,5.00,0.00,22.7,21.4,00.0,31.3,24.5,05.8,0000.0,0001.10,0006.52,0000.55
2023-03-09 21:38:00,,0824.7,5.00,0.00,22.6,21.4,00.0,31.3,24.4,05.7,0000.0,0001.05,0005.44,0000.54
2023-03-09 21:39:00,,0824.6,4.98,0.00,22.6,21.4,00.0,31.3,24.5,05.7,0000.0,0000.94,0004.08,0000.54
2023-03-09 21:40:00,,0824.6,5.01,0.00,22.6,21.4,00.0,31.3,24.5,05.7,0000.0,0000.91,0003.89,0000.54
2023-03-09 21:41:00,,0824.6,4.99,0.00,22.7,21.4,00.0,31.3,24.5,05.7,0000.0,0000.88,0003.59,0000.54
2023-03-09 21:42:00,,0824.7,5.00,0.00,22.7,21.5,00.0,31.3,24.5,05.7,0000.0,0000.91,0003.60,0000.54
2023-03-09 21:43:00,,0824.6,5.00,0.00,22.7,21.5,00.0,31.3,24.5,05.7,0000.0,0000.89,0003.57,0000.53
2023-03-09 21:44:00,,0824.6,5.01,0.00,22.7,21.5,00.0,31.3,24.6,05.8,0000.0,0000.89,0003.28,0000.54
2023-03-09 21:45:00,,0824.6,5.01,0.00,22.7,21.5,00.0,31.4,24.5,05.8,0000.0,0000.90,0003.02,0000.54
2023-03-09 21:46:00,,0824.5,4.99,0.00,22.7,21.6,00.0,31.4,24.6,05.8,0000.0,0000.86,0002.87,0000.54
2023-03-09 21:47:00,,0824.6,4.99,0.00,22.7,21.6,00.0,31.4,24.6,05.9,0000.0,0000.84,0002.83,0000.54
2023-03-09 21:48:00,,0824.7,5.01,0.00,22.7,21.6,00.0,31.4,24.6,05.8,0000.0,0000.81,0002.69,0000.54
2023-03-09 21:49:00,,0824.6,4.97,0.00,22.7,21.6,00.0,31.4,24.6,05.9,0000.0,0000.82,0002.40,0000.55
2023-03-09 21:50:00,,0824.7,5.02,0.00,22.8,21.6,00.0,31.4,24.6,05.8,0000.0,0000.84,0001.54,0000.54
2023-03-09 21:51:00,,0824.7,4.99,0.00,22.8,21.6,00.0,31.4,24.6,05.8,0000.0,0000.85,0001.77,0000.53
2023-03-09 21:52:00,,0824.7,4.99,0.00,22.8,21.6,00.0,31.4,24.7,05.6,0000.0,0000.81,0001.87,0000.52
2023-03-09 21:53:00,,0824.7,5.00,0.00,22.8,21.6,00.0,31.4,24.6,05.7,0000.0,0000.79,0001.95,0000.53
2023-03-09 21:54:00,,0824.7,5.01,0.00,22.8,21.6,00.0,31.4,24.6,05.8,0000.0,0000.78,0001.92,0000.53
2023-03-09 21:55:00,,0824.6,5.00,0.00,22.8,21.6,00.0,31.4,24.6,05.9,0000.0,0000.78,0001.92,0000.53
2023-03-09 21:56:00,,0824.8,4.99,0.00,22.8,21.6,00.0,31.5,24.7,05.9,0000.0,0000.80,0001.96,0000.54
2023-03-09 21:57:00,,0824.6,5.01,0.00,22.8,21.7,00.0,31.5,24.7,05.9,0000.0,0000.81,0002.00,0000.53
2023-03-09 21:58:00,,0824.7,5.00,0.00,22.8,21.7,00.0,31.5,24.7,05.9,0000.0,0000.84,0002.94,0000.53
2023-03-09 21:59:00,,0824.6,5.01,0.00,22.8,21.7,00.0,31.5,24.7,06.0,0000.0,0000.88,0003.11,0000.53
